Location: Rioux
(40.7500°S, 175.7500°E)
Time: 09:27:06
(UTC+00:00)

Okean 3 Rocket - Pass Details

Date: 12 June 2024
Orbit: 612 x 641 km, 82.5° (Epoch: 21 July)

Event Time Altitude Azimuth Distance (km) Brightness Sun altitude
Rises 18:58:14 0° 189° (S) 2,987 6.7 -7.6°
Reaches altitude 10° 19:00:30 10° 190° (S) 2,068 5.9 -7.2°
Maximum altitude 19:05:06 82° 276° (W) 659 3.6 -6.5°
Drops below altitude 10° 19:09:37 10° 3° (N) 2,025 6.6 -5.7°
Sets 19:11:50 0° 4° (N) 2,920 7.5 -5.3°
